Time,TemperatureF,DewpointF,PressureIn,WindDirection,WindDirectionDegrees,WindSpeedMPH,WindSpeedGustMPH,Humidity,HourlyPrecipIn,Conditions,Clouds,dailyrainin,SoftwareType,DateUTC
2013-04-24 00:04:00,46.6,-3.3,26.10,NNE,18,0.0,0.0,12,0.00,,,-99.99,VWS V12.07,2013-04-24 07:04:00,
2013-04-24 00:10:00,46.4,-3.6,26.10,NNE,18,0.0,0.0,12,0.00,,,-99.99,VWS V12.07,2013-04-24 07:10:00,
2013-04-24 00:16:00,46.6,-3.3,26.10,East,93,0.0,0.0,12,0.00,,,-99.99,VWS V12.07,2013-04-24 07:16:00,
2013-04-24 00:22:00,46.8,-3.2,26.10,ESE,112,0.0,0.0,12,0.00,,,-99.99,VWS V12.07,2013-04-24 07:22:00,
2013-04-24 00:28:00,46.6,-3.3,26.10,ESE,112,0.0,0.0,12,0.00,,,-99.99,VWS V12.07,2013-04-24 07:28:00,
2013-04-24 00:34:00,46.2,-3.7,26.10,ESE,112,0.0,0.0,12,0.00,,,-99.99,VWS V12.07,2013-04-24 07:34:00,
2013-04-24 00:40:00,45.9,-3.9,26.10,ESE,112,0.0,0.0,12,0.00,,,-99.99,VWS V12.07,2013-04-24 07:40:00,
2013-04-24 00:46:00,46.0,-3.7,26.10,ESE,112,0.0,0.0,12,0.00,,,-99.99,VWS V12.07,2013-04-24 07:46:00,
2013-04-24 00:52:00,46.0,-3.7,26.10,ESE,112,0.0,0.0,12,0.00,,,-99.99,VWS V12.07,2013-04-24 07:52:00,
2013-04-24 00:58:00,46.0,-3.7,26.10,ESE,112,0.0,0.0,12,0.00,,,-99.99,VWS V12.07,2013-04-24 07:58:00,
2013-04-24 01:04:00,46.0,-3.7,26.10,ESE,112,0.0,0.0,12,0.00,,,-99.99,VWS V12.07,2013-04-24 08:04:00,
2013-04-24 01:10:00,46.0,-3.7,26.10,ESE,112,0.0,0.0,12,0.00,,,-99.99,VWS V12.07,2013-04-24 08:10:00,
2013-04-24 01:16:00,46.0,-3.6,26.10,ESE,112,0.0,0.0,12,0.00,,,-99.99,VWS V12.07,2013-04-24 08:16:00,
2013-04-24 01:22:00,46.2,-3.6,26.10,ESE,112,0.0,0.0,12,0.00,,,-99.99,VWS V12.07,2013-04-24 08:22:00,
2013-04-24 01:28:00,46.2,-3.7,26.07,ESE,112,0.0,0.0,12,0.00,,,-99.99,VWS V12.07,2013-04-24 08:28:00,
2013-04-24 01:34:00,45.7,-4.0,26.07,ESE,112,0.0,0.0,12,0.00,,,-99.99,VWS V12.07,2013-04-24 08:34:00,
2013-04-24 01:40:00,45.5,-4.0,26.07,ESE,112,0.0,0.0,12,0.00,,,-99.99,VWS V12.07,2013-04-24 08:40:00,
2013-04-24 01:46:00,45.3,-4.2,26.07,ESE,112,0.0,0.0,12,0.00,,,-99.99,VWS V12.07,2013-04-24 08:46:00,
2013-04-24 01:52:00,45.9,-3.9,26.07,ESE,112,0.0,0.0,12,0.00,,,-99.99,VWS V12.07,2013-04-24 08:52:00,
2013-04-24 01:58:00,46.0,-3.9,26.07,ESE,112,0.0,0.0,12,0.00,,,-99.99,VWS V12.07,2013-04-24 08:58:00,
2013-04-24 02:04:00,45.5,-4.0,26.07,ESE,112,0.0,0.0,12,0.00,,,-99.99,VWS V12.07,2013-04-24 09:04:00,
2013-04-24 02:10:00,45.9,-3.9,26.07,ESE,112,0.0,0.0,12,0.00,,,-99.99,VWS V12.07,2013-04-24 09:10:00,
2013-04-24 02:16:00,46.0,-3.7,26.07,East,98,0.0,0.0,12,0.00,,,-99.99,VWS V12.07,2013-04-24 09:16:00,
2013-04-24 02:22:00,46.8,-2.9,26.07,SSE,149,0.0,0.0,12,0.00,,,-99.99,VWS V12.07,2013-04-24 09:22:00,
2013-04-24 02:28:00,46.8,-3.0,26.07,SSE,149,0.0,0.0,12,0.00,,,-99.99,VWS V12.07,2013-04-24 09:28:00,
2013-04-24 02:34:00,45.9,-3.9,26.07,SSE,149,0.0,0.0,12,0.00,,,-99.99,VWS V12.07,2013-04-24 09:34:00,
2013-04-24 02:40:00,45.3,-4.3,26.07,SSE,149,0.0,0.0,12,0.00,,,-99.99,VWS V12.07,2013-04-24 09:40:00,
2013-04-24 02:46:00,45.5,-4.3,26.07,SSE,149,0.0,0.0,12,0.00,,,-99.99,VWS V12.07,2013-04-24 09:46:00,
2013-04-24 02:52:00,45.9,-3.9,26.07,SSE,149,0.0,0.0,12,0.00,,,-99.99,VWS V12.07,2013-04-24 09:52:00,
2013-04-24 02:58:00,45.7,-3.9,26.07,SSE,149,0.0,0.0,12,0.00,,,-99.99,VWS V12.07,2013-04-24 09:58:00,
2013-04-24 03:04:00,45.3,-4.3,26.07,SSE,149,0.0,0.0,12,0.00,,,-99.99,VWS V12.07,2013-04-24 10:04:00,
2013-04-24 03:10:00,45.5,-4.3,26.07,SSE,149,0.0,0.0,12,0.00,,,-99.99,VWS V12.07,2013-04-24 10:10:00,
2013-04-24 03:16:00,45.3,-4.2,26.07,SSE,149,0.0,0.0,12,0.00,,,-99.99,VWS V12.07,2013-04-24 10:16:00,
2013-04-24 03:22:00,45.5,-4.2,26.07,SSE,149,0.0,0.0,12,0.00,,,-99.99,VWS V12.07,2013-04-24 10:22:00,
2013-04-24 03:28:00,45.5,-4.3,26.07,SSE,149,0.0,0.0,12,0.00,,,-99.99,VWS V12.07,2013-04-24 10:28:00,
2013-04-24 03:34:00,45.3,-4.3,26.07,SSE,149,0.0,0.0,12,0.00,,,-99.99,VWS V12.07,2013-04-24 10:34:00,
2013-04-24 03:40:00,45.3,-4.3,26.07,SSE,149,0.0,0.0,12,0.00,,,-99.99,VWS V12.07,2013-04-24 10:40:00,
2013-04-24 03:46:00,45.9,-3.9,26.07,SSE,149,0.0,0.0,12,0.00,,,-99.99,VWS V12.07,2013-04-24 10:46:00,
2013-04-24 03:52:00,45.9,-3.9,26.07,SSE,149,0.0,0.0,12,0.00,,,-99.99,VWS V12.07,2013-04-24 10:52:00,
2013-04-24 03:58:00,46.0,-3.9,26.07,SSE,149,0.0,0.0,12,0.00,,,-99.99,VWS V12.07,2013-04-24 10:58:00,
2013-04-24 04:04:00,46.2,-3.6,26.07,SSE,149,0.0,0.0,12,0.00,,,-99.99,VWS V12.07,2013-04-24 11:04:00,
2013-04-24 04:10:00,45.5,-4.3,26.07,SSE,149,0.0,0.0,12,0.00,,,-99.99,VWS V12.07,2013-04-24 11:10:00,
2013-04-24 04:16:00,45.0,-4.6,26.07,SSE,149,0.0,0.0,12,0.00,,,-99.99,VWS V12.07,2013-04-24 11:16:00,
2013-04-24 04:22:00,44.6,-4.9,26.07,SSE,149,0.0,0.0,12,0.00,,,-99.99,VWS V12.07,2013-04-24 11:22:00,
2013-04-24 04:28:00,44.8,-4.7,26.05,SSE,149,0.0,0.0,12,0.00,,,-99.99,VWS V12.07,2013-04-24 11:28:00,
2013-04-24 04:34:00,44.8,-4.7,26.05,SSE,149,0.0,0.0,12,0.00,,,-99.99,VWS V12.07,2013-04-24 11:34:00,
2013-04-24 04:40:00,45.0,-4.6,26.05,SSE,149,0.0,0.0,12,0.00,,,-99.99,VWS V12.07,2013-04-24 11:40:00,
2013-04-24 04:46:00,44.6,-4.9,26.05,SSE,149,0.0,0.0,12,0.00,,,-99.99,VWS V12.07,2013-04-24 11:46:00,
2013-04-24 04:52:00,44.2,-5.2,26.05,SSE,149,0.0,0.0,12,0.00,,,-99.99,VWS V12.07,2013-04-24 11:52:00,
2013-04-24 04:58:00,44.2,-5.3,26.05,SSE,149,0.0,0.0,12,0.00,,,-99.99,VWS V12.07,2013-04-24 11:58:00,
2013-04-24 05:04:00,44.1,-5.3,26.05,SSE,149,0.0,0.0,12,0.00,,,-99.99,VWS V12.07,2013-04-24 12:04:00,
2013-04-24 05:10:00,44.1,-5.3,26.05,SSE,149,0.0,0.0,12,0.00,,,-99.99,VWS V12.07,2013-04-24 12:10:00,
2013-04-24 05:16:00,44.1,-5.3,26.05,SSE,149,0.0,0.0,12,0.00,,,-99.99,VWS V12.07,2013-04-24 12:16:00,
2013-04-24 05:22:00,44.1,-5.3,26.05,SSE,149,0.0,0.0,12,0.00,,,-99.99,VWS V12.07,2013-04-24 12:22:00,
2013-04-24 05:28:00,43.9,-5.3,26.05,SSE,149,0.0,0.0,12,0.00,,,-99.99,VWS V12.07,2013-04-24 12:28:00,
2013-04-24 05:34:00,43.7,-5.6,26.05,SSE,149,0.0,0.0,12,0.00,,,-99.99,VWS V12.07,2013-04-24 12:34:00,
2013-04-24 05:40:00,43.9,-5.4,26.05,SSE,149,0.0,0.0,12,0.00,,,-99.99,VWS V12.07,2013-04-24 12:40:00,
2013-04-24 05:46:00,44.1,-5.3,26.07,SSE,149,0.0,0.0,12,0.00,,,-99.99,VWS V12.07,2013-04-24 12:46:00,
2013-04-24 05:52:00,43.7,-5.6,26.07,SSE,149,0.0,0.0,12,0.00,,,-99.99,VWS V12.07,2013-04-24 12:52:00,
2013-04-24 05:58:00,43.9,-5.6,26.07,SSE,149,0.0,0.0,12,0.00,,,-99.99,VWS V12.07,2013-04-24 12:58:00,
2013-04-24 06:04:00,44.1,-5.3,26.07,SSE,149,0.0,0.0,12,0.00,,,-99.99,VWS V12.07,2013-04-24 13:04:00,
2013-04-24 06:10:00,44.1,-5.3,26.07,SSE,149,0.0,0.0,12,0.00,,,-99.99,VWS V12.07,2013-04-24 13:10:00,
2013-04-24 06:16:00,43.9,-5.4,26.07,SSE,149,0.0,0.0,12,0.00,,,-99.99,VWS V12.07,2013-04-24 13:16:00,
2013-04-24 06:22:00,44.1,-5.3,26.07,SSE,149,0.0,0.0,12,0.00,,,-99.99,VWS V12.07,2013-04-24 13:22:00,
2013-04-24 06:28:00,44.6,-5.0,26.07,SSE,149,0.0,0.0,12,0.00,,,-99.99,VWS V12.07,2013-04-24 13:28:00,
2013-04-24 06:34:00,45.0,-4.7,26.07,SSE,149,0.0,0.0,12,0.00,,,-99.99,VWS V12.07,2013-04-24 13:34:00,
2013-04-24 06:40:00,45.1,-4.4,26.07,East,83,0.0,0.0,12,0.00,,,-99.99,VWS V12.07,2013-04-24 13:40:00,
2013-04-24 06:46:00,45.3,-4.3,26.07,East,83,0.0,0.0,12,0.00,,,-99.99,VWS V12.07,2013-04-24 13:46:00,
2013-04-24 06:52:00,45.9,-4.0,26.07,East,83,0.0,0.0,12,0.00,,,-99.99,VWS V12.07,2013-04-24 13:52:00,
2013-04-24 06:58:00,46.0,-3.6,26.07,East,83,0.0,0.0,12,0.00,,,-99.99,VWS V12.07,2013-04-24 13:58:00,
2013-04-24 07:04:00,46.6,-3.4,26.07,East,83,0.0,0.0,12,0.00,,,-99.99,VWS V12.07,2013-04-24 14:04:00,
2013-04-24 07:10:00,46.9,-2.7,26.07,East,83,0.0,0.0,12,0.00,,,-99.99,VWS V12.07,2013-04-24 14:10:00,
2013-04-24 07:16:00,47.8,-2.2,26.07,East,83,0.0,0.0,12,0.00,,,-99.99,VWS V12.07,2013-04-24 14:16:00,
2013-04-24 07:22:00,48.6,-1.7,26.07,East,83,0.0,0.0,12,0.00,,,-99.99,VWS V12.07,2013-04-24 14:22:00,
2013-04-24 07:28:00,49.3,-1.5,26.07,NNE,22,0.0,0.0,12,0.00,,,-99.99,VWS V12.07,2013-04-24 14:28:00,
2013-04-24 07:34:00,50.2,-1.2,26.07,North,3,0.0,4.0,12,0.00,,,-99.99,VWS V12.07,2013-04-24 14:34:00,
2013-04-24 07:40:00,50.2,-0.5,26.07,North,3,0.0,4.0,12,0.00,,,-99.99,VWS V12.07,2013-04-24 14:40:00,
2013-04-24 07:46:00,51.3,0.2,26.07,SE,146,0.0,4.0,12,0.00,,,-99.99,VWS V12.07,2013-04-24 14:46:00,
2013-04-24 07:52:00,52.5,1.5,26.07,SSE,165,0.0,4.0,12,0.00,,,-99.99,VWS V12.07,2013-04-24 14:52:00,
2013-04-24 07:58:00,54.3,2.7,26.07,SSE,153,0.0,4.0,12,0.00,,,-99.99,VWS V12.07,2013-04-24 14:58:00,
2013-04-24 08:04:00,55.2,3.4,26.07,SSE,153,3.8,3.8,12,0.00,,,-99.99,VWS V12.07,2013-04-24 15:04:00,
2013-04-24 08:10:00,57.6,5.2,26.07,SW,218,0.0,8.1,12,0.00,,,-99.99,VWS V12.07,2013-04-24 15:10:00,
2013-04-24 08:16:00,59.4,6.9,26.07,SW,227,3.8,8.1,12,0.00,,,-99.99,VWS V12.07,2013-04-24 15:16:00,
2013-04-24 08:22:00,61.2,7.6,26.07,SE,134,3.8,4.9,12,0.00,,,-99.99,VWS V12.07,2013-04-24 15:22:00,
2013-04-24 08:28:00,62.8,9.3,26.07,South,190,3.8,6.3,12,0.00,,,-99.99,VWS V12.07,2013-04-24 15:28:00,
2013-04-24 08:34:00,64.0,10.6,26.07,South,190,4.8,8.1,12,0.00,,,-99.99,VWS V12.07,2013-04-24 15:34:00,
2013-04-24 08:40:00,65.7,11.6,26.07,SW,234,4.3,8.1,12,0.00,,,-99.99,VWS V12.07,2013-04-24 15:40:00,
2013-04-24 08:46:00,66.0,12.0,26.07,SSW,193,4.3,8.7,12,0.00,,,-99.99,VWS V12.07,2013-04-24 15:46:00,
2013-04-24 08:52:00,66.2,12.1,26.07,SW,220,6.4,10.1,12,0.00,,,-99.99,VWS V12.07,2013-04-24 15:52:00,
2013-04-24 08:58:00,66.4,12.1,26.07,SSW,206,3.2,10.1,12,0.00,,,-99.99,VWS V12.07,2013-04-24 15:58:00,
2013-04-24 09:04:00,66.7,12.5,26.07,SSW,203,4.3,7.6,12,0.00,,,-99.99,VWS V12.07,2013-04-24 16:04:00,
2013-04-24 09:10:00,67.3,12.8,26.07,SSW,213,2.7,7.6,12,0.00,,,-99.99,VWS V12.07,2013-04-24 16:10:00,
2013-04-24 09:16:00,67.5,13.1,26.07,WSW,241,4.8,7.6,12,0.00,,,-99.99,VWS V12.07,2013-04-24 16:16:00,
2013-04-24 09:22:00,67.8,13.4,26.07,SW,226,3.2,4.0,12,0.00,,,-99.99,VWS V12.07,2013-04-24 16:22:00,
2013-04-24 09:28:00,68.2,13.5,26.07,SSW,208,2.7,7.6,12,0.00,,,-99.99,VWS V12.07,2013-04-24 16:28:00,
2013-04-24 09:34:00,68.5,13.9,26.07,South,185,0.0,7.6,12,0.00,,,-99.99,VWS V12.07,2013-04-24 16:34:00,
2013-04-24 09:40:00,69.3,14.4,26.07,South,178,3.2,7.6,12,0.00,,,-99.99,VWS V12.07,2013-04-24 16:40:00,
2013-04-24 09:46:00,69.6,14.8,26.07,SSW,208,4.3,8.7,12,0.00,,,-99.99,VWS V12.07,2013-04-24 16:46:00,
2013-04-24 09:52:00,69.8,14.9,26.07,SW,225,4.8,8.7,12,0.00,,,-99.99,VWS V12.07,2013-04-24 16:52:00,
2013-04-24 09:58:00,70.0,15.1,26.07,SSW,192,3.2,8.7,12,0.00,,,-99.99,VWS V12.07,2013-04-24 16:58:00,
2013-04-24 10:04:00,70.3,15.4,26.07,SSW,202,5.9,7.2,12,0.00,,,-99.99,VWS V12.07,2013-04-24 17:04:00,
2013-04-24 10:10:00,70.3,15.4,26.07,SW,217,5.9,8.1,12,0.00,,,-99.99,VWS V12.07,2013-04-24 17:10:00,
2013-04-24 10:16:00,70.9,15.9,26.07,SSW,194,4.8,8.1,12,0.00,,,-99.99,VWS V12.07,2013-04-24 17:16:00,
2013-04-24 10:22:00,71.4,16.2,26.07,SW,232,4.8,7.6,12,0.00,,,-99.99,VWS V12.07,2013-04-24 17:22:00,
2013-04-24 10:28:00,71.4,16.2,26.07,South,189,4.8,7.6,12,0.00,,,-99.99,VWS V12.07,2013-04-24 17:28:00,
2013-04-24 10:34:00,71.6,16.3,26.07,SW,231,3.8,7.6,12,0.00,,,-99.99,VWS V12.07,2013-04-24 17:34:00,
2013-04-24 10:40:00,72.3,16.8,26.07,SW,227,4.3,11.0,12,0.00,,,-99.99,VWS V12.07,2013-04-24 17:40:00,
2013-04-24 10:46:00,73.2,17.7,26.07,South,180,3.8,8.7,12,0.00,,,-99.99,VWS V12.07,2013-04-24 17:46:00,
2013-04-24 10:52:00,74.3,18.6,26.07,SSW,203,2.7,8.7,12,0.00,,,-99.99,VWS V12.07,2013-04-24 17:52:00,
2013-04-24 10:58:00,74.8,19.0,26.07,SSW,202,4.3,8.7,12,0.00,,,-99.99,VWS V12.07,2013-04-24 17:58:00,
2013-04-24 11:04:00,74.8,19.0,26.07,SSE,149,6.4,8.7,12,0.00,,,-99.99,VWS V12.07,2013-04-24 18:04:00,
2013-04-24 11:10:00,77.2,20.3,26.07,SW,223,2.7,10.5,12,0.00,,,-99.99,VWS V12.07,2013-04-24 18:10:00,
2013-04-24 11:16:00,77.9,21.1,26.07,SW,236,4.3,10.5,12,0.00,,,-99.99,VWS V12.07,2013-04-24 18:16:00,
2013-04-24 11:22:00,78.3,21.5,26.07,South,175,8.1,9.6,12,0.00,,,-99.99,VWS V12.07,2013-04-24 18:22:00,
2013-04-24 11:28:00,78.3,21.8,26.07,South,180,9.1,9.6,12,0.00,,,-99.99,VWS V12.07,2013-04-24 18:28:00,
2013-04-24 11:34:00,78.6,21.4,26.07,SSW,196,5.9,9.6,12,0.00,,,-99.99,VWS V12.07,2013-04-24 18:34:00,
2013-04-24 11:40:00,79.7,22.5,26.07,SE,144,6.4,9.6,12,0.00,,,-99.99,VWS V12.07,2013-04-24 18:40:00,
2013-04-24 11:46:00,79.3,22.6,26.05,WSW,241,4.3,8.7,12,0.00,,,-99.99,VWS V12.07,2013-04-24 18:46:00,
2013-04-24 11:52:00,78.4,22.1,26.05,SW,236,5.9,8.7,12,0.00,,,-99.99,VWS V12.07,2013-04-24 18:52:00,
2013-04-24 11:58:00,79.7,22.4,26.05,WNW,286,6.4,8.7,12,0.00,,,-99.99,VWS V12.07,2013-04-24 18:58:00,
2013-04-24 12:04:00,78.4,21.7,26.05,West,275,2.7,8.3,12,0.00,,,-99.99,VWS V12.07,2013-04-24 19:04:00,
2013-04-24 12:10:00,77.9,19.7,26.05,West,259,0.0,8.3,12,0.00,,,-99.99,VWS V12.07,2013-04-24 19:10:00,
2013-04-24 12:16:00,73.9,17.9,26.07,West,266,4.8,8.3,12,0.00,,,-99.99,VWS V12.07,2013-04-24 19:16:00,
2013-04-24 12:22:00,73.0,17.3,26.07,West,281,6.4,6.4,12,0.00,,,-99.99,VWS V12.07,2013-04-24 19:22:00,
2013-04-24 12:28:00,71.4,16.3,26.07,West,273,3.8,6.3,12,0.00,,,-99.99,VWS V12.07,2013-04-24 19:28:00,
2013-04-24 12:34:00,71.1,15.8,26.07,West,271,3.2,6.3,12,0.00,,,-99.99,VWS V12.07,2013-04-24 19:34:00,
2013-04-24 12:40:00,70.7,16.2,26.07,WNW,283,5.9,6.3,12,0.00,,,-99.99,VWS V12.07,2013-04-24 19:40:00,
2013-04-24 12:46:00,70.7,15.9,26.07,WNW,295,4.8,6.3,12,0.00,,,-99.99,VWS V12.07,2013-04-24 19:46:00,
2013-04-24 12:52:00,70.2,15.2,26.07,West,276,4.3,6.3,12,0.00,,,-99.99,VWS V12.07,2013-04-24 19:52:00,
2013-04-24 12:58:00,69.8,14.8,26.07,West,278,5.9,6.3,12,0.00,,,-99.99,VWS V12.07,2013-04-24 19:58:00,
2013-04-24 13:04:00,69.6,14.9,26.07,WNW,293,3.8,5.8,12,0.00,,,-99.99,VWS V12.07,2013-04-24 20:04:00,
2013-04-24 13:10:00,69.1,14.5,26.07,NW,304,2.7,8.1,12,0.00,,,-99.99,VWS V12.07,2013-04-24 20:10:00,
2013-04-24 13:16:00,68.9,14.2,26.07,WNW,300,4.3,8.1,12,0.00,,,-99.99,VWS V12.07,2013-04-24 20:16:00,
2013-04-24 13:22:00,68.4,13.9,26.07,SW,225,3.2,3.6,12,0.00,,,-99.99,VWS V12.07,2013-04-24 20:22:00,
2013-04-24 13:28:00,69.6,14.8,26.05,NW,308,2.7,5.8,12,0.00,,,-99.99,VWS V12.07,2013-04-24 20:28:00,
2013-04-24 13:34:00,69.8,15.1,26.05,WNW,282,3.8,5.8,12,0.00,,,-99.99,VWS V12.07,2013-04-24 20:34:00,
2013-04-24 13:40:00,70.2,14.9,26.05,WSW,258,4.3,4.3,12,0.00,,,-99.99,VWS V12.07,2013-04-24 20:40:00,
2013-04-24 13:46:00,71.2,16.1,26.05,WSW,257,7.0,7.0,12,0.00,,,-99.99,VWS V12.07,2013-04-24 20:46:00,
2013-04-24 13:52:00,71.1,15.9,26.05,WSW,251,5.9,6.3,12,0.00,,,-99.99,VWS V12.07,2013-04-24 20:52:00,
2013-04-24 13:58:00,70.5,15.6,26.05,WNW,299,7.0,7.0,12,0.00,,,-99.99,VWS V12.07,2013-04-24 20:58:00,
2013-04-24 14:04:00,70.0,15.4,26.05,NW,326,9.9,9.9,12,0.00,,,-99.99,VWS V12.07,2013-04-24 21:04:00,
2013-04-24 14:10:00,68.9,13.8,26.05,WSW,256,7.5,8.3,12,0.00,,,-99.99,VWS V12.07,2013-04-24 21:10:00,
2013-04-24 14:16:00,66.9,12.8,26.05,West,273,7.5,8.7,12,0.00,,,-99.99,VWS V12.07,2013-04-24 21:16:00,
2013-04-24 14:22:00,65.1,11.3,26.05,West,275,4.8,4.8,12,0.00,,,-99.99,VWS V12.07,2013-04-24 21:22:00,
2013-04-24 14:28:00,64.0,10.3,26.07,West,262,4.3,5.8,12,0.00,,,-99.99,VWS V12.07,2013-04-24 21:28:00,
2013-04-24 14:34:00,63.1,10.0,26.07,NW,325,4.8,5.8,12,0.00,,,-99.99,VWS V12.07,2013-04-24 21:34:00,
2013-04-24 14:40:00,63.0,9.6,26.07,WNW,286,3.8,5.8,12,0.00,,,-99.99,VWS V12.07,2013-04-24 21:40:00,
2013-04-24 14:46:00,62.2,9.2,26.07,WNW,284,5.9,6.3,12,0.00,,,-99.99,VWS V12.07,2013-04-24 21:46:00,
2013-04-24 14:52:00,61.7,8.6,26.07,North,357,3.8,6.3,12,0.00,,,-99.99,VWS V12.07,2013-04-24 21:52:00,
2013-04-24 14:58:00,63.7,10.0,26.05,WSW,258,7.0,7.0,12,0.00,,,-99.99,VWS V12.07,2013-04-24 21:58:00,
2013-04-24 15:04:00,63.7,10.6,26.05,NW,306,4.8,5.8,12,0.00,,,-99.99,VWS V12.07,2013-04-24 22:04:00,
2013-04-24 15:10:00,63.7,10.7,26.05,West,273,7.0,7.0,12,0.00,,,-99.99,VWS V12.07,2013-04-24 22:10:00,
2013-04-24 15:16:00,63.9,10.0,26.05,WSW,258,3.8,6.3,12,0.00,,,-99.99,VWS V12.07,2013-04-24 22:16:00,
2013-04-24 15:22:00,62.8,9.0,26.05,WNW,300,3.2,3.6,12,0.00,,,-99.99,VWS V12.07,2013-04-24 22:22:00,
2013-04-24 15:28:00,60.4,7.9,26.05,WSW,258,4.3,4.9,12,0.00,,,-99.99,VWS V12.07,2013-04-24 22:28:00,
2013-04-24 15:34:00,57.9,5.6,26.05,NW,310,3.2,5.4,12,0.00,,,-99.99,VWS V12.07,2013-04-24 22:34:00,
2013-04-24 15:40:00,57.0,4.8,26.05,West,277,4.8,5.4,12,0.00,,,-99.99,VWS V12.07,2013-04-24 22:40:00,
2013-04-24 15:46:00,55.8,3.8,26.05,NW,316,9.7,9.7,12,0.00,,,-99.99,VWS V12.07,2013-04-24 22:46:00,
2013-04-24 15:52:00,54.9,3.2,26.05,WNW,293,2.7,8.1,12,0.00,,,-99.99,VWS V12.07,2013-04-24 22:52:00,
2013-04-24 15:58:00,54.7,3.2,26.07,NW,316,0.0,8.1,12,0.00,,,-99.99,VWS V12.07,2013-04-24 22:58:00,
2013-04-24 16:04:00,53.6,2.1,26.07,NW,305,0.0,3.6,12,0.00,,,-99.99,VWS V12.07,2013-04-24 23:04:00,
2013-04-24 16:10:00,53.2,2.0,26.07,NW,310,3.2,5.8,12,0.00,,,-99.99,VWS V12.07,2013-04-24 23:10:00,
2013-04-24 16:16:00,52.7,1.2,26.07,NNW,346,4.3,5.8,12,0.00,,,-99.99,VWS V12.07,2013-04-24 23:16:00,
2013-04-24 16:22:00,52.2,1.1,26.07,WNW,282,2.7,3.1,12,0.00,,,-99.99,VWS V12.07,2013-04-24 23:22:00,
2013-04-24 16:28:00,52.0,1.0,26.05,West,272,0.0,3.1,12,0.00,,,-99.99,VWS V12.07,2013-04-24 23:28:00,
2013-04-24 16:34:00,51.8,1.0,26.05,NW,318,0.0,3.1,12,0.00,,,-99.99,VWS V12.07,2013-04-24 23:34:00,
2013-04-24 16:40:00,51.6,0.5,26.05,SW,236,4.3,5.4,12,0.00,,,-99.99,VWS V12.07,2013-04-24 23:40:00,
2013-04-24 16:46:00,51.6,0.7,26.05,NNW,337,2.7,5.4,12,0.00,,,-99.99,VWS V12.07,2013-04-24 23:46:00,
2013-04-24 16:52:00,51.1,0.2,26.05,NW,319,0.0,5.4,12,0.00,,,-99.99,VWS V12.07,2013-04-24 23:52:00,
2013-04-24 16:58:00,51.1,0.2,26.05,WNW,294,0.0,5.4,12,0.00,,,-99.99,VWS V12.07,2013-04-24 23:58:00,
2013-04-24 17:04:00,50.9,0.0,26.05,NW,316,0.0,4.0,12,0.00,,,-99.99,VWS V12.07,2013-04-25 00:04:00,
2013-04-24 17:10:00,51.1,0.2,26.05,WNW,302,0.0,4.0,12,0.00,,,-99.99,VWS V12.07,2013-04-25 00:10:00,
2013-04-24 17:16:00,51.1,0.2,26.05,West,270,0.0,4.0,12,0.00,,,-99.99,VWS V12.07,2013-04-25 00:16:00,
2013-04-24 17:22:00,50.7,0.0,26.05,NW,315,0.0,5.8,12,0.00,,,-99.99,VWS V12.07,2013-04-25 00:22:00,
2013-04-24 17:28:00,50.9,0.0,26.05,WNW,292,0.0,5.8,12,0.00,,,-99.99,VWS V12.07,2013-04-25 00:28:00,
2013-04-24 17:34:00,50.4,-0.3,26.05,NW,314,0.0,5.8,12,0.00,,,-99.99,VWS V12.07,2013-04-25 00:34:00,
2013-04-24 17:40:00,50.4,0.1,26.05,NNW,334,0.0,0.0,12,0.00,,,-99.99,VWS V12.07,2013-04-25 00:40:00,
2013-04-24 17:46:00,51.1,0.2,26.05,NNW,344,0.0,3.6,12,0.00,,,-99.99,VWS V12.07,2013-04-25 00:46:00,
2013-04-24 17:52:00,50.7,0.0,26.05,NNW,344,0.0,3.6,12,0.00,,,-99.99,VWS V12.07,2013-04-25 00:52:00,
2013-04-24 17:58:00,50.5,0.0,26.05,NNW,340,0.0,3.6,12,0.00,,,-99.99,VWS V12.07,2013-04-25 00:58:00,
2013-04-24 18:04:00,50.5,-0.2,26.05,NNW,340,0.0,0.0,12,0.00,,,-99.99,VWS V12.07,2013-04-25 01:04:00,
2013-04-24 18:10:00,50.7,0.1,26.05,NW,315,0.0,2.2,12,0.00,,,-99.99,VWS V12.07,2013-04-25 01:10:00,
2013-04-24 18:16:00,50.9,0.1,26.05,WNW,288,0.0,2.2,12,0.00,,,-99.99,VWS V12.07,2013-04-25 01:16:00,
2013-04-24 18:22:00,50.5,-0.2,26.05,WNW,285,0.0,0.0,12,0.00,,,-99.99,VWS V12.07,2013-04-25 01:22:00,
2013-04-24 18:28:00,50.2,-0.6,26.05,NW,304,0.0,0.0,12,0.00,,,-99.99,VWS V12.07,2013-04-25 01:28:00,
2013-04-24 18:34:00,49.8,-0.7,26.05,NW,321,0.0,4.9,12,0.00,,,-99.99,VWS V12.07,2013-04-25 01:34:00,
2013-04-24 18:40:00,49.8,-0.7,26.05,NW,321,0.0,0.0,12,0.00,,,-99.99,VWS V12.07,2013-04-25 01:40:00,
2013-04-24 18:46:00,49.6,-0.9,26.07,NW,304,0.0,0.0,12,0.00,,,-99.99,VWS V12.07,2013-04-25 01:46:00,
2013-04-24 18:52:00,49.3,-1.0,26.07,WNW,303,0.0,0.0,12,0.00,,,-99.99,VWS V12.07,2013-04-25 01:52:00,
2013-04-24 18:58:00,49.6,-0.9,26.05,NW,311,0.0,0.0,12,0.00,,,-99.99,VWS V12.07,2013-04-25 01:58:00,
2013-04-24 19:04:00,49.5,-1.0,26.05,NW,313,0.0,0.0,12,0.00,,,-99.99,VWS V12.07,2013-04-25 02:04:00,
2013-04-24 19:10:00,49.3,-1.0,26.05,NNW,341,0.0,3.1,12,0.00,,,-99.99,VWS V12.07,2013-04-25 02:10:00,
2013-04-24 19:16:00,49.1,-1.3,26.05,NNW,331,0.0,3.1,12,0.00,,,-99.99,VWS V12.07,2013-04-25 02:16:00,
2013-04-24 19:22:00,49.1,-1.3,26.05,NNW,331,0.0,0.0,12,0.00,,,-99.99,VWS V12.07,2013-04-25 02:22:00,
2013-04-24 19:28:00,49.1,-1.3,26.05,WNW,295,0.0,0.0,12,0.00,,,-99.99,VWS V12.07,2013-04-25 02:28:00,
2013-04-24 19:34:00,48.9,-1.5,26.05,WNW,282,0.0,0.0,12,0.00,,,-99.99,VWS V12.07,2013-04-25 02:34:00,
2013-04-24 19:40:00,48.9,-1.5,26.05,West,272,0.0,3.1,12,0.00,,,-99.99,VWS V12.07,2013-04-25 02:40:00,
2013-04-24 19:46:00,48.7,-1.6,26.07,SW,233,2.7,3.1,12,0.00,,,-99.99,VWS V12.07,2013-04-25 02:46:00,
2013-04-24 19:52:00,48.7,-1.6,26.07,WSW,254,0.0,3.1,12,0.00,,,-99.99,VWS V12.07,2013-04-25 02:52:00,
2013-04-24 19:58:00,48.4,-1.9,26.07,WSW,257,0.0,4.0,12,0.00,,,-99.99,VWS V12.07,2013-04-25 02:58:00,
2013-04-24 20:04:00,48.4,-2.0,26.07,West,270,0.0,4.0,12,0.00,,,-99.99,VWS V12.07,2013-04-25 03:04:00,
2013-04-24 20:10:00,48.4,-2.0,26.07,WSW,254,0.0,4.0,12,0.00,,,-99.99,VWS V12.07,2013-04-25 03:10:00,
2013-04-24 20:16:00,48.2,-2.0,26.07,WSW,247,0.0,4.0,12,0.00,,,-99.99,VWS V12.07,2013-04-25 03:16:00,
2013-04-24 20:22:00,48.2,-2.0,26.07,WSW,247,0.0,0.0,12,0.00,,,-99.99,VWS V12.07,2013-04-25 03:22:00,
2013-04-24 20:28:00,48.2,-2.0,26.07,WSW,247,0.0,0.0,12,0.00,,,-99.99,VWS V12.07,2013-04-25 03:28:00,
2013-04-24 20:34:00,48.4,-1.7,26.07,WSW,247,0.0,0.0,12,0.00,,,-99.99,VWS V12.07,2013-04-25 03:34:00,
2013-04-24 20:40:00,48.6,-1.6,26.07,WSW,247,0.0,0.0,12,0.00,,,-99.99,VWS V12.07,2013-04-25 03:40:00,
2013-04-24 20:46:00,48.6,-1.7,26.07,WSW,247,0.0,0.0,12,0.00,,,-99.99,VWS V12.07,2013-04-25 03:46:00,
2013-04-24 20:52:00,48.6,-1.7,26.07,WSW,247,0.0,0.0,12,0.00,,,-99.99,VWS V12.07,2013-04-25 03:52:00,
2013-04-24 20:58:00,48.7,-1.6,26.07,WSW,247,0.0,0.0,12,0.00,,,-99.99,VWS V12.07,2013-04-25 03:58:00,
2013-04-24 21:02:00,48.7,-1.6,26.07,WSW,247,0.0,0.0,12,0.00,,,-99.99,VWS V12.07,2013-04-25 04:02:00,
2013-04-24 21:04:00,48.7,-1.6,26.07,WSW,247,0.0,0.0,12,0.00,,,-99.99,VWS V12.07,2013-04-25 04:04:00,
2013-04-24 21:08:00,48.4,-1.6,26.07,WSW,248,0.0,0.0,12,0.00,,,-99.99,VWS V12.07,2013-04-25 04:08:00,
2013-04-24 21:12:00,48.4,-1.9,26.07,WSW,248,0.0,0.0,12,0.00,,,-99.99,VWS V12.07,2013-04-25 04:12:00,
2013-04-24 21:16:00,48.2,-1.9,26.07,WSW,248,0.0,0.0,12,0.00,,,-99.99,VWS V12.07,2013-04-25 04:16:00,
2013-04-24 21:22:00,48.0,-2.0,26.07,WSW,248,0.0,0.0,12,0.00,,,-99.99,VWS V12.07,2013-04-25 04:22:00,
2013-04-24 21:28:00,48.2,-2.0,26.07,WSW,248,0.0,0.0,12,0.00,,,-99.99,VWS V12.07,2013-04-25 04:28:00,
2013-04-24 21:34:00,48.2,-2.0,26.07,WSW,248,0.0,0.0,12,0.00,,,-99.99,VWS V12.07,2013-04-25 04:34:00,
2013-04-24 21:40:00,48.2,-2.0,26.07,WSW,248,0.0,0.0,12,0.00,,,-99.99,VWS V12.07,2013-04-25 04:40:00,
2013-04-24 21:46:00,48.2,-2.0,26.07,WSW,248,0.0,0.0,12,0.00,,,-99.99,VWS V12.07,2013-04-25 04:46:00,
2013-04-24 21:52:00,48.0,-2.2,26.07,WSW,248,0.0,0.0,12,0.00,,,-99.99,VWS V12.07,2013-04-25 04:52:00,
2013-04-24 21:58:00,47.8,-2.3,26.07,WSW,248,0.0,0.0,12,0.00,,,-99.99,VWS V12.07,2013-04-25 04:58:00,
2013-04-24 22:04:00,47.7,-2.3,26.07,WSW,248,0.0,0.0,12,0.00,,,-99.99,VWS V12.07,2013-04-25 05:04:00,
2013-04-24 22:10:00,47.7,-2.5,26.07,WSW,248,0.0,0.0,12,0.00,,,-99.99,VWS V12.07,2013-04-25 05:10:00,
2013-04-24 22:16:00,47.8,-2.3,26.07,WSW,248,0.0,0.0,12,0.00,,,-99.99,VWS V12.07,2013-04-25 05:16:00,
2013-04-24 22:22:00,48.0,-2.0,26.07,WSW,248,0.0,0.0,12,0.00,,,-99.99,VWS V12.07,2013-04-25 05:22:00,
2013-04-24 22:28:00,48.0,-2.2,26.10,WSW,255,0.0,0.0,12,0.00,,,-99.99,VWS V12.07,2013-04-25 05:28:00,
2013-04-24 22:34:00,47.8,-2.3,26.10,WSW,255,0.0,0.0,12,0.00,,,-99.99,VWS V12.07,2013-04-25 05:34:00,
2013-04-24 22:40:00,47.8,-2.3,26.10,WSW,255,0.0,0.0,12,0.00,,,-99.99,VWS V12.07,2013-04-25 05:40:00,
2013-04-24 22:46:00,47.8,-2.3,26.10,WSW,255,0.0,0.0,12,0.00,,,-99.99,VWS V12.07,2013-04-25 05:46:00,
2013-04-24 22:52:00,47.7,-2.5,26.10,West,261,0.0,0.0,12,0.00,,,-99.99,VWS V12.07,2013-04-25 05:52:00,
2013-04-24 22:58:00,47.8,-2.3,26.10,West,261,0.0,0.0,12,0.00,,,-99.99,VWS V12.07,2013-04-25 05:58:00,
2013-04-24 23:04:00,47.8,-2.3,26.10,West,261,0.0,0.0,12,0.00,,,-99.99,VWS V12.07,2013-04-25 06:04:00,
2013-04-24 23:10:00,47.7,-2.5,26.10,West,261,0.0,0.0,12,0.00,,,-99.99,VWS V12.07,2013-04-25 06:10:00,
2013-04-24 23:16:00,47.8,-2.3,26.07,West,271,0.0,0.0,12,0.00,,,-99.99,VWS V12.07,2013-04-25 06:16:00,
2013-04-24 23:22:00,47.5,-2.6,26.07,West,269,3.2,3.2,12,0.00,,,-99.99,VWS V12.07,2013-04-25 06:22:00,
2013-04-24 23:28:00,47.1,-2.9,26.07,West,260,0.0,3.1,12,0.00,,,-99.99,VWS V12.07,2013-04-25 06:28:00,
2013-04-24 23:34:00,47.1,-2.9,26.07,West,275,0.0,3.1,12,0.00,,,-99.99,VWS V12.07,2013-04-25 06:34:00,
2013-04-24 23:40:00,46.9,-3.0,26.07,West,268,0.0,0.0,12,0.00,,,-99.99,VWS V12.07,2013-04-25 06:40:00,
2013-04-24 23:46:00,46.9,-3.0,26.10,West,265,0.0,4.0,12,0.00,,,-99.99,VWS V12.07,2013-04-25 06:46:00,
2013-04-24 23:52:00,46.8,-3.2,26.10,SW,215,0.0,4.0,12,0.00,,,-99.99,VWS V12.07,2013-04-25 06:52:00,
2013-04-24 23:58:00,46.6,-3.3,26.10,West,259,0.0,4.0,12,0.00,,,-99.99,VWS V12.07,2013-04-25 06:58:00,